Back to catalog

STARLINK-30527

AliveCommunicationsVLEO
NORAD 58007·PAYLOAD·🇺🇸 United States

Launched Oct 5, 2023 from Cape Canaveral Space Force Station

Loading…

Next Passes (next 24 hours)

TLE

FreshSource: CelesTrak SupGP

Epoch: Sep 14, 2026, 13:32 UTC

1 58007C 23153S   26257.56437500 -.00024005  00000+0 -86956-3 0  2572
2 58007  43.0004 211.7172 0001435 271.6665 157.6638 15.27586195    16

Track STARLINK-30527 in real time with AllMySat

Download on the App Store